Meadville, PA

12:55 PM EST on December 07, 2016 (GMT -0500)
Port Meadville

Weather History for KGKJ - March, 2013

Change the Weather History Date:

Thursday, March 21, 2013

  Actual Average Record
Temperature  
Mean Temperature 20 °F -  
Max Temperature 25 °F 46 °F 78 °F (2012)
Min Temperature 15 °F 25 °F 5 °F (1965)
Degree Days  
Heating Degree Days 45    
Moisture  
Dew Point 16 °F    
Average Humidity 81    
Maximum Humidity 93    
Minimum Humidity 63    
Precipitation  
Precipitation 0.00 in - - ()
Sea Level Pressure  
Sea Level Pressure 29.80 in    
Wind  
Wind Speed 8 mph (WSW)    
Max Wind Speed 16 mph    
Max Gust Speed 23 mph    
Visibility 3 miles    
Events Fog , Snow    
Averages and records for this station are not official NWS values.
T = Trace of Precipitation, MM = Missing Value Source: NWS Daily Summary

Daily Weather History Graph

Daily Weather History Graph

Search for Another Location

Airport or City:

Trip Planner

Search our weather history database for the weather conditions in past years. The results will help you decide how hot, cold, wet, or windy it might be!

Date:

Astronomy

Mar. 21, 2013 Rise Set
Actual Time 7:22 AM EDT 7:34 PM EDT
Civil Twilight 6:54 AM EDT 8:02 PM EDT
Nautical Twilight 6:21 AM EDT 8:34 PM EDT
Astronomical Twilight 5:48 AM EDT 9:07 PM EDT
Moon 1:59 PM EDT (3/21) 3:46 AM EDT (3/21)
Length of Visible Light 13h 07m
Length of Day
12h 12m
Waxing Gibbous, 68% of the Moon is Illuminated
Mar 21
Waxing Gibbous
Mar 27
Full
Apr 3
Last Quarter
Apr 10
New
Apr 18
First Quarter

Hourly Weather History & Observations

Time (EDT) Temp. Windchill Dew Point Humidity Pressure Visibility Wind Dir Wind Speed Gust Speed Precip Events Conditions
12:53 AM 21.0 °F 13.4 °F 14.0 °F 74% 29.87 in 10.0 mi West 5.8 mph - N/A   Mostly Cloudy
1:21 AM 21.2 °F 10.1 °F 15.8 °F 80% 29.82 in 5.0 mi West 10.4 mph - 0.00 in Snow Light Snow
1:31 AM 21.2 °F 10.9 °F 15.8 °F 80% 29.82 in 1.8 mi West 9.2 mph - 0.00 in Snow Light Snow
1:43 AM 19.4 °F 8.6 °F 15.8 °F 86% 29.81 in 3.0 mi West 9.2 mph - 0.00 in Snow Light Snow
2:16 AM 19.4 °F 8.6 °F 15.8 °F 86% 29.81 in 2.5 mi West 9.2 mph 16.1 mph 0.00 in Snow Light Snow
2:24 AM 19.4 °F 10.4 °F 15.8 °F 86% 29.81 in 1.0 mi West 6.9 mph 17.3 mph 0.00 in Snow Light Snow
2:37 AM 19.4 °F 9.5 °F 15.8 °F 86% 29.81 in 3.0 mi West 8.1 mph - 0.00 in Snow Light Snow
2:53 AM 19.9 °F 10.1 °F 15.1 °F 81% 29.86 in 10.0 mi West 8.1 mph - 0.00 in   Overcast
3:12 AM 19.4 °F 10.4 °F 14.0 °F 80% 29.80 in 1.8 mi West 6.9 mph - 0.00 in Snow Light Snow
3:18 AM 19.4 °F 9.5 °F 15.8 °F 86% 29.80 in 0.8 mi West 8.1 mph - 0.00 in Snow Light Snow
3:25 AM 19.4 °F 10.4 °F 15.8 °F 86% 29.80 in 1.5 mi West 6.9 mph - 0.00 in Snow Light Snow
3:28 AM 19.4 °F 10.4 °F 14.0 °F 80% 29.80 in 3.0 mi WSW 6.9 mph - 0.00 in Snow Light Snow
3:38 AM 19.4 °F 12.8 °F 15.8 °F 86% 29.79 in 3.0 mi SW 4.6 mph - 0.00 in Snow Light Snow
3:42 AM 19.4 °F 10.4 °F 15.8 °F 86% 29.79 in 1.8 mi WSW 6.9 mph - 0.00 in Snow Light Snow
3:53 AM 19.9 °F 11.1 °F 16.0 °F 85% 29.85 in 0.8 mi West 6.9 mph - 0.00 in Snow Light Snow
4:26 AM 19.4 °F 12.8 °F 15.8 °F 86% 29.78 in 0.2 mi WNW 4.6 mph - 0.00 in Fog , Snow Heavy Snow
4:46 AM 19.4 °F 10.4 °F 15.8 °F 86% 29.78 in 1.0 mi West 6.9 mph - 0.00 in Snow Light Snow
4:53 AM 19.0 °F 9.0 °F 14.0 °F 81% 29.83 in 3.0 mi West 8.1 mph - 0.00 in Snow Light Snow
5:00 AM 19.4 °F 11.5 °F 14.0 °F 80% 29.78 in 6.0 mi West 5.8 mph - 0.00 in Snow Light Snow
5:18 AM 15.8 °F 5.1 °F 12.2 °F 86% 29.78 in 10.0 mi WSW 8.1 mph - 0.00 in   Mostly Cloudy
5:26 AM 15.8 °F 5.1 °F 10.4 °F 79% 29.78 in 10.0 mi WSW 8.1 mph - 0.00 in   Mostly Cloudy
5:53 AM 16.0 °F 6.3 °F 10.9 °F 81% 29.84 in 5.0 mi West 6.9 mph - 0.00 in Snow Light Snow
6:07 AM 17.6 °F 10.7 °F 12.2 °F 79% 29.78 in 10.0 mi WSW 4.6 mph - 0.00 in   Overcast
6:27 AM 17.6 °F 5.7 °F 12.2 °F 79% 29.78 in 10.0 mi WSW 10.4 mph - 0.00 in   Mostly Cloudy
6:46 AM 15.8 °F 8.6 °F 10.4 °F 79% 29.78 in 10.0 mi WSW 4.6 mph - 0.00 in   Scattered Clouds
6:53 AM 15.1 °F 6.4 °F 10.9 °F 84% 29.84 in 10.0 mi WSW 5.8 mph - 0.00 in   Partly Cloudy
7:53 AM 15.1 °F 7.7 °F 12.0 °F 88% 29.84 in 3.0 mi WSW 4.6 mph - 0.00 in Snow Light Snow
8:01 AM 15.8 °F 10.2 °F 12.2 °F 86% 29.78 in 1.8 mi SW 3.5 mph - 0.00 in Snow Light Snow
8:11 AM 15.8 °F 7.2 °F 12.2 °F 86% 29.77 in 2.5 mi SW 5.8 mph - 0.00 in   Mostly Cloudy
8:18 AM 15.8 °F 8.6 °F 12.2 °F 86% 29.78 in 4.0 mi SW 4.6 mph - 0.00 in   Mostly Cloudy
8:40 AM 15.8 °F 10.2 °F 12.2 °F 86% 29.78 in 1.8 mi WSW 3.5 mph - 0.00 in Snow Light Snow
8:53 AM 16.0 °F 10.4 °F 12.0 °F 84% 29.84 in 2.0 mi SW 3.5 mph - 0.00 in Snow Light Snow
9:10 AM 17.6 °F 9.3 °F 12.2 °F 79% 29.77 in 1.8 mi WSW 5.8 mph - 0.00 in Snow Light Snow
9:35 AM 17.6 °F 7.3 °F 12.2 °F 79% 29.78 in 3.0 mi WSW 8.1 mph - 0.00 in Snow Light Snow
9:42 AM 17.6 °F 6.4 °F 12.2 °F 79% 29.78 in 4.0 mi West 9.2 mph - 0.00 in Snow Light Snow
9:53 AM 18.0 °F 7.7 °F 12.0 °F 78% 29.85 in 3.0 mi WSW 8.1 mph - 0.00 in Snow Light Snow
10:03 AM 17.6 °F 8.2 °F 12.2 °F 79% 29.78 in 6.0 mi WSW 6.9 mph - 0.00 in   Haze
10:38 AM 19.4 °F 7.9 °F 10.4 °F 68% 29.79 in 1.8 mi West 10.4 mph - 0.00 in Snow Light Snow
10:53 AM 19.0 °F 8.2 °F 12.0 °F 74% 29.85 in 1.0 mi WSW 9.2 mph - 0.00 in Snow Light Snow
11:14 AM 19.4 °F 10.4 °F 10.4 °F 68% 29.78 in 3.0 mi Variable 6.9 mph - 0.00 in Snow Light Snow
11:53 AM 21.0 °F 8.1 °F 10.9 °F 65% 29.84 in 6.0 mi WSW 13.8 mph - 0.00 in   Haze
12:53 PM 21.9 °F 10.4 °F 12.0 °F 66% 29.84 in 4.0 mi SW 11.5 mph 17.3 mph 0.00 in Snow Light Snow
1:20 PM 23.0 °F 11.1 °F 12.2 °F 63% 29.78 in 2.5 mi WSW 12.7 mph - 0.00 in Snow Light Snow
1:23 PM 23.0 °F 10.6 °F 12.2 °F 63% 29.78 in 3.0 mi WSW 13.8 mph - 0.00 in Snow Light Snow
1:29 PM 23.0 °F 13.1 °F 12.2 °F 63% 29.78 in 1.8 mi WSW 9.2 mph 19.6 mph 0.00 in Snow Light Snow
1:53 PM 23.0 °F 11.7 °F 15.1 °F 72% 29.84 in 1.8 mi WSW 11.5 mph 17.3 mph 0.00 in Snow Light Snow
2:14 PM 23.0 °F 13.9 °F 15.8 °F 74% 29.78 in 0.8 mi West 8.1 mph 20.7 mph 0.00 in Snow Light Snow
2:31 PM 24.8 °F 14.0 °F 15.8 °F 69% 29.78 in 1.8 mi WSW 11.5 mph - 0.00 in Snow Light Snow
2:53 PM 24.1 °F 13.1 °F 16.0 °F 71% 29.83 in 1.5 mi WSW 11.5 mph - 0.00 in Snow Light Snow
3:27 PM 24.8 °F 14.0 °F 17.6 °F 74% 29.77 in 0.5 mi West 11.5 mph 21.9 mph 0.00 in Snow Snow
3:53 PM 24.1 °F 11.5 °F 18.0 °F 77% 29.83 in 1.0 mi West 15.0 mph 21.9 mph 0.00 in Snow Light Snow
4:53 PM 24.1 °F 11.0 °F 18.0 °F 77% 29.84 in 0.8 mi West 16.1 mph 23.0 mph 0.00 in Snow Light Snow
5:12 PM 24.8 °F 12.9 °F 19.4 °F 80% 29.78 in 0.5 mi WSW 13.8 mph - 0.00 in Snow Snow
5:22 PM 24.8 °F 11.9 °F 19.4 °F 80% 29.78 in 0.2 mi West 16.1 mph - 0.00 in Snow Heavy Snow
5:25 PM 24.8 °F 12.9 °F 19.4 °F 80% 29.78 in 0.5 mi WSW 13.8 mph - 0.00 in Snow Snow
5:36 PM 24.8 °F 14.0 °F 19.4 °F 80% 29.78 in 1.0 mi WSW 11.5 mph 20.7 mph 0.00 in Snow Light Snow
5:39 PM 24.8 °F 15.3 °F 19.4 °F 80% 29.78 in 0.8 mi WSW 9.2 mph 18.4 mph 0.00 in Snow Light Snow
5:50 PM 24.8 °F 13.4 °F 19.4 °F 80% 29.78 in 1.5 mi WSW 12.7 mph 19.6 mph 0.00 in Snow Light Snow
5:53 PM 24.1 °F 13.7 °F 19.0 °F 81% 29.84 in 1.8 mi WSW 10.4 mph 19.6 mph 0.00 in Snow Light Snow
6:08 PM 24.8 °F 15.3 °F 19.4 °F 80% 29.78 in 0.5 mi WSW 9.2 mph 19.6 mph 0.00 in Snow Snow
6:50 PM 24.8 °F 14.0 °F 19.4 °F 80% 29.78 in 1.2 mi WSW 11.5 mph - 0.00 in Snow Light Snow
6:53 PM 25.0 °F 14.2 °F 19.9 °F 81% 29.84 in 1.0 mi West 11.5 mph - 0.00 in Snow Light Snow
6:55 PM 24.8 °F 13.4 °F 19.4 °F 80% 29.78 in 0.8 mi West 12.7 mph - 0.00 in Snow Light Snow
7:26 PM 24.8 °F 13.4 °F 21.2 °F 86% 29.78 in 0.2 mi WSW 12.7 mph 18.4 mph 0.00 in Fog , Snow Snow
7:49 PM 24.8 °F 14.6 °F 21.2 °F 86% 29.79 in 0.8 mi WSW 10.4 mph - 0.00 in Snow Light Snow
7:53 PM 24.1 °F 13.7 °F 21.0 °F 88% 29.85 in 1.2 mi West 10.4 mph - 0.00 in Snow Light Snow
8:03 PM 24.8 °F 12.9 °F 21.2 °F 86% 29.79 in 3.0 mi West 13.8 mph - 0.00 in Snow Light Snow
8:09 PM 24.8 °F 14.0 °F 21.2 °F 86% 29.79 in 1.8 mi West 11.5 mph 18.4 mph 0.00 in Snow Light Snow
8:22 PM 24.8 °F 15.3 °F 21.2 °F 86% 29.79 in 0.8 mi West 9.2 mph - 0.00 in Snow Light Snow
8:31 PM 24.8 °F 14.6 °F 21.2 °F 86% 29.79 in 2.0 mi West 10.4 mph - 0.00 in Snow Light Snow
8:44 PM 24.8 °F 14.0 °F 21.2 °F 86% 29.79 in 1.2 mi West 11.5 mph - 0.00 in Snow Light Snow
8:53 PM 25.0 °F 17.1 °F 21.0 °F 85% 29.85 in 1.0 mi West 6.9 mph 17.3 mph 0.00 in Snow Light Snow
9:01 PM 24.8 °F 14.6 °F 21.2 °F 86% 29.79 in 1.5 mi West 10.4 mph - 0.00 in Snow Light Snow
9:13 PM 24.8 °F 14.6 °F 21.2 °F 86% 29.79 in 1.0 mi West 10.4 mph - 0.00 in Snow Light Snow
9:18 PM 24.8 °F 14.6 °F 21.2 °F 86% 29.79 in 1.0 mi West 10.4 mph - 0.00 in Snow Light Snow
9:29 PM 24.8 °F 14.0 °F 21.2 °F 86% 29.79 in 0.5 mi West 11.5 mph - 0.00 in Fog , Snow Snow
9:43 PM 24.8 °F 14.6 °F 21.2 °F 86% 29.79 in 0.8 mi West 10.4 mph - 0.00 in Snow Light Snow
9:53 PM 25.0 °F 14.2 °F 21.9 °F 88% 29.85 in 0.8 mi West 11.5 mph - 0.00 in Snow Light Snow
10:42 PM 24.8 °F 14.0 °F 21.2 °F 86% 29.79 in 1.2 mi WSW 11.5 mph - 0.00 in Snow Light Snow
10:53 PM 25.0 °F 13.6 °F 21.9 °F 88% 29.85 in 0.8 mi WSW 12.7 mph - 0.00 in Snow Light Snow
11:21 PM 24.8 °F 15.3 °F 23.0 °F 93% 29.80 in 0.2 mi NW 9.2 mph - 0.00 in Fog , Snow Heavy Snow
11:34 PM 24.8 °F 17.9 °F 23.0 °F 93% 29.80 in 0.2 mi NW 5.8 mph - 0.00 in Fog , Snow Snow
11:43 PM 24.8 °F 19.1 °F 23.0 °F 93% 29.80 in 0.5 mi WNW 4.6 mph - 0.00 in Fog , Snow Light Snow
11:53 PM 25.0 °F 18.1 °F 23.0 °F 92% 29.86 in 0.8 mi West 5.8 mph - 0.00 in Snow Light Snow